Location: Misciano
(43.5000°N, 11.9500°E)
Time: 17:33:19
(UTC+00:00)

Intercosmos 25 - Pass Details

Date: 13 August 2020
Orbit: 439 x 2877 km, 82.6° (Epoch: 24 September)

Event Time Altitude Azimuth Distance (km) Brightness Sun altitude
Rises 19:24:16 0° 349° (N) 2,955 7.7 -11.5°
Reaches altitude 10° 19:26:46 10° 347° (NNW) 1,836 6.7 -11.9°
Maximum altitude 19:30:29 67° 265° (W) 509 3.3 -12.5°
Drops below altitude 10° 19:33:37 10° 182° (S) 1,548 5.3 -13.0°
Enters shadow 19:33:56 - 181° (S) 1,693 5.5 -13.0°
